Hourly Data Report for November 22, 2012

BAGOTVILLE A
QUEBEC

48°20'00.000" N
71°00'00.000" W
159.10 m
7060400
71727
YBG

Download Data

Hourly Data (November 2012)
Hourly Data Report for November 22, 2012
TIME
LST
Temp Definition
°C
Dew Point Definition
°C
Rel Hum Definition
%
Precip. Amount Definition
mm

Wind Dir Definition
10's deg

Wind Spd Definition
km/h
Visibility Definition
km
Stn Press Definition
kPa
Hmdx Definition


Wind Chill Definition


Weather Definition


00:00 -0.1 -2.2 86   14 4 24.1 100.01   -1 Mainly Clear
01:00 -1.9 -3.2 91   27 4 24.1 100.02   -3 Mainly Clear
02:00 -0.5 -2.9 84   12 4 24.1 99.99   -2 Mostly Cloudy
03:00 0.5 -2.5 80   9 7 24.1 99.97     Mostly Cloudy
04:00 -1.6 -2.9 91     0 24.1 99.98     Mostly Cloudy
05:00 -3.6 -5.2 89   26 4 24.1 100.01   -5 Mainly Clear
06:00 -1.8 -4.5 82   18 6 24.1 99.96   -4 Mostly Cloudy
07:00 0.5 -3.7 73     0 40.2 99.99     Mostly Cloudy
08:00 0.5 -2.0 83   20 6 40.2 99.99     Cloudy
09:00 2.4 -2.8 68   13 6 40.2 99.92     Cloudy
10:00 2.8 -2.0 71   10 11 40.2 99.88     Cloudy
11:00 3.7 -1.2 70   9 9 40.2 99.78     Mostly Cloudy
12:00 6.0 -0.6 63   11 9 32.2 99.67     Mainly Clear
13:00 7.2 0.1 61   10 11 32.2 99.56     Mainly Clear
14:00 8.5 1.5 61   10 9 32.2 99.47     Mainly Clear
15:00 5.0 0.4 72   11 9 40.2 99.41     Mainly Clear
16:00 3.4 0.1 79   15 4 40.2 99.39     Mostly Cloudy
17:00 5.9 1.4 73   18 6 24.1 99.37     Mostly Cloudy
18:00 5.5 1.2 74   17 7 24.1 99.36     Mostly Cloudy
19:00 4.5 1.1 79   9 6 24.1 99.37     Mainly Clear
20:00 2.5 0.4 86     0 24.1 99.33     Mostly Cloudy
21:00 3.6 0.8 82   12 4 24.1 99.27     Mainly Clear
22:00 1.5 -0.2 88   15 7 24.1 99.23     Mainly Clear
23:00 1.7 -0.5 85   16 6 24.1 99.19     Mainly Clear

Notes on Data Quality.

Legend

  • E = Estimated
  • M = Missing
  • NA = Not Available*
  • [empty] = Indicates an unobserved value
Date modified: